logo tempoitalia

Diretta Meteo Santorini Island, Grecialunedì 31 agosto ore 08:20

Mappa
Sereno 26 °C Sereno 24 Ore: T.min 24 T.max 30
Ponente Nord/NOvest Km/h 29.6 Punto di rugiada: 20 °C Umidità: 69% Visibilità: 10 Km
Il sole sorge alle: 06:48 Il sole tramonta alle: 19:48
31 Agosto 2026 08:20 tempo osservato: Sereno Sereno 26 69 1013 vento: Nord N/NO 29.6
31 Agosto 2026 07:50 tempo osservato: Sereno Sereno 25 73 1014 vento: Nord N/NO 29.6
31 Agosto 2026 07:20 tempo osservato: Sereno Sereno 25 69 1013 vento: Nord N/NO 25.9
31 Agosto 2026 06:50 tempo osservato: Sereno Sereno 25 65 1013 vento: Nord NO 18.5
31 Agosto 2026 06:20 tempo osservato: Sereno Sereno 25 65 1013 vento: Nord O/NO 14.8
31 Agosto 2026 05:50 tempo osservato: Sereno Sereno 25 65 1013 vento: Nord NO 14.8
31 Agosto 2026 05:20 tempo osservato: Sereno Sereno 24 64 1013 vento: Nord O/NO 14.8
31 Agosto 2026 02:50 tempo osservato: Sereno Sereno 25 65 1014 vento: Nord O/NO 14.8
31 Agosto 2026 01:20 tempo osservato: Sereno Sereno 25 69 1014 vento: Nord N/NO 16.7
31 Agosto 2026 00:50 tempo osservato: Sereno Sereno 25 65 1014 vento: Nord N/NO 16.7
31 Agosto 2026 00:20 tempo osservato: Sereno Sereno 25 65 1014 vento: Nord N/NO 16.7
30 Agosto 2026 23:50 tempo osservato: Sereno Sereno 25 69 1014 vento: Nord NO 18.5
30 Agosto 2026 23:20 tempo osservato: Sereno Sereno 25 65 1014 vento: Nord NO 20.3
30 Agosto 2026 22:50 tempo osservato: Sereno Sereno 25 65 1014 vento: Nord N/NO 27.8
30 Agosto 2026 22:20 tempo osservato: Sereno Sereno 26 61 1013 vento: Nord N/NO 31.5
30 Agosto 2026 21:50 tempo osservato: Sereno Sereno 26 61 1013 vento: Nord N/NO 29.6
30 Agosto 2026 21:20 tempo osservato: Sereno Sereno 25 65 1013 vento: Nord N/NO 24
30 Agosto 2026 20:50 tempo osservato: Poco Nuvoloso Poco Nuvoloso 26 57 1013 vento: Nord N/NO 31.5
30 Agosto 2026 20:20 tempo osservato: Poco Nuvoloso Poco Nuvoloso 26 57 1013 vento: Nord N/NO 31.5
30 Agosto 2026 19:50 tempo osservato: Poco Nuvoloso Poco Nuvoloso 27 54 1013 vento: Nord N/NO 27.8
30 Agosto 2026 19:20 tempo osservato: Sereno Sereno 27 61 1013 vento: Nord NO 24
30 Agosto 2026 18:50 tempo osservato: Sereno Sereno 27 61 1013 vento: Nord N/NO 31.5
30 Agosto 2026 18:20 tempo osservato: Sereno Sereno 27 61 1013 vento: Nord N/NO 31.5
30 Agosto 2026 17:50 tempo osservato: Sereno Sereno 28 51 1013 vento: Nord N/NO 38.8
30 Agosto 2026 17:20 tempo osservato: Sereno Sereno 28 51 1013 vento: Nord N/NO 31.5
30 Agosto 2026 16:50 tempo osservato: Sereno Sereno 29 45 1013 vento: Nord N/NO 42.6
30 Agosto 2026 16:20 tempo osservato: Sereno Sereno 30 37 1013 vento: Nord N/NO 40.7
30 Agosto 2026 15:50 tempo osservato: Sereno Sereno 30 42 1014 vento: Nord N/NO 33.3
30 Agosto 2026 15:20 tempo osservato: Sereno Sereno 29 51 1014 vento: Nord N/NO 29.6
30 Agosto 2026 14:50 tempo osservato: Sereno Sereno 29 48 1014 vento: Nord N/NO 29.6
30 Agosto 2026 14:20 tempo osservato: Sereno Sereno 29 51 1014 vento: Nord N 37
30 Agosto 2026 13:50 tempo osservato: Sereno Sereno 29 48 1014 vento: Nord N/NO 38.8
30 Agosto 2026 13:20 tempo osservato: Sereno Sereno 28 58 1014 vento: Nord N/NO 29.6
30 Agosto 2026 12:50 tempo osservato: Sereno Sereno 28 54 1014 vento: Nord N/NO 31.5
30 Agosto 2026 12:20 tempo osservato: Sereno Sereno 28 54 1014 vento: Nord N/NO 38.8
30 Agosto 2026 11:50 tempo osservato: Sereno Sereno 28 54 1014 vento: Nord N/NO 29.6
30 Agosto 2026 11:20 tempo osservato: Sereno Sereno 28 54 1014 vento: Nord N/NO 24
30 Agosto 2026 10:50 tempo osservato: Sereno Sereno 27 54 1014 vento: Nord N/NO 31.5
30 Agosto 2026 10:20 tempo osservato: Sereno Sereno 28 51 1014 vento: Nord N/NO 31.5
30 Agosto 2026 09:50 tempo osservato: Sereno Sereno 27 54 1014 vento: Nord N/NO 25.9
30 Agosto 2026 09:20 tempo osservato: Sereno Sereno 26 65 1014 vento: Nord NO 25.9
30 Agosto 2026 08:50 tempo osservato: Sereno Sereno 26 57 1014 vento: Nord N/NO 29.6